MDT,Max TemperatureF,Mean TemperatureF,Min TemperatureF,Max Dew PointF,MeanDew PointF,Min DewpointF,Max Humidity, Mean Humidity, Min Humidity, Max Sea Level PressureIn, Mean Sea Level PressureIn, Min Sea Level PressureIn, Max VisibilityMiles, Mean VisibilityMiles, Min VisibilityMiles, Max Wind SpeedMPH, Mean Wind SpeedMPH, Max Gust SpeedMPH,PrecipitationIn, CloudCover, Events, WindDirDegrees
2013-9-1,91,67,43,52,45,40,100,59,18,30.02,29.94,29.83,10,10,10,9,2,12,0.00,0,,319
2013-9-2,83,68,52,56,50,46,86,59,31,29.94,29.88,29.83,10,10,10,16,5,24,T,1,,336
2013-9-3,70,61,52,58,54,51,93,78,63,30.09,30.05,29.95,10,10,10,8,2,10,0.01,3,Rain,21
2013-9-4,86,68,49,59,52,48,100,67,34,30.12,30.07,29.97,10,8,1,10,3,14,0.00,0,,311
2013-9-5,79,67,54,60,57,52,90,68,45,30.10,29.99,29.92,10,10,9,9,5,12,0.16,2,Rain-Thunderstorm,265
2013-9-6,78,67,55,64,57,47,100,74,48,30.06,30.00,29.96,10,5,0,22,4,25,0.38,4,Fog-Rain-Thunderstorm,296
2013-9-7,79,66,53,55,53,50,86,62,37,30.09,30.03,29.95,10,10,10,10,2,15,T,3,Rain-Thunderstorm,229
2013-9-8,62,56,50,56,53,49,100,86,72,30.02,30.00,29.97,10,9,2,13,4,23,0.31,6,Rain-Thunderstorm,177
2013-9-9,75,63,51,55,54,51,100,73,46,30.06,30.01,29.96,10,10,10,8,1,12,0.00,5,,213
2013-9-10,81,63,45,55,50,45,100,70,39,30.10,30.06,30.01,10,5,0,8,2,12,0.00,1,Fog,290
2013-9-11,88,70,52,53,49,42,93,57,21,30.20,30.13,30.09,10,10,10,10,4,15,0.00,0,,337
2013-9-12,90,69,48,51,47,42,86,54,21,30.16,30.05,29.91,10,10,10,15,3,67,0.00,0,,346
2013-9-13,86,67,47,56,50,44,93,62,31,29.93,29.86,29.78,10,10,10,10,3,21,0.00,0,,326
2013-9-14,86,69,52,50,47,44,67,46,25,30.00,29.93,29.84,10,10,10,14,6,23,0.00,0,,5
2013-9-15,86,65,44,54,47,41,89,58,27,30.01,29.89,29.72,10,10,10,12,3,15,0.00,0,,319
2013-9-16,79,64,48,58,51,45,93,64,35,29.84,29.77,29.71,10,10,5,21,5,29,0.03,3,Rain,257
2013-9-17,73,55,37,51,42,37,100,67,33,29.86,29.78,29.59,10,6,0,26,3,36,0.14,1,Fog-Rain,270
2013-9-18,54,51,47,52,47,44,96,88,80,30.13,29.85,29.64,10,9,4,12,4,16,0.97,8,Rain,42
2013-9-19,64,52,39,47,44,40,100,72,43,30.22,30.15,30.08,10,10,10,9,2,22,T,5,Rain,191
2013-9-20,73,55,36,44,40,35,100,66,31,30.07,29.90,29.70,10,10,10,10,3,13,0.00,0,,331
2013-9-21,66,54,41,49,44,40,92,70,48,29.70,29.67,29.62,10,10,10,13,5,56,T,2,Rain,278
2013-9-22,62,49,36,46,41,35,100,74,47,29.72,29.68,29.65,10,10,2,16,6,24,0.00,4,,201
2013-9-23,60,52,43,45,41,38,80,66,51,29.98,29.86,29.68,10,10,8,24,10,30,0.06,6,Rain,197
2013-9-24,52,45,37,48,43,37,100,87,74,29.96,29.85,29.77,10,9,2,14,3,20,0.08,7,Rain,138
2013-9-25,54,46,37,45,41,32,100,77,54,29.89,29.80,29.75,10,10,10,18,4,23,0.04,7,Rain,343
2013-9-26,59,45,30,35,32,26,96,64,32,30.06,29.99,29.89,10,10,10,15,4,18,0.00,5,,348
2013-9-27,53,40,27,38,33,27,92,67,41,30.06,30.01,29.94,10,10,6,18,5,25,T,6,Rain,206
2013-9-28,60,52,44,43,40,35,76,64,51,29.94,29.79,29.61,10,10,10,21,9,26,T,8,,184
2013-9-29,58,53,47,45,39,36,77,62,47,29.70,29.60,29.42,10,10,10,22,12,33,0.05,8,Rain,198
2013-9-30,54,47,40,42,37,33,92,71,50,29.86,29.67,29.46,10,10,10,28,11,37,0.18,6,Rain,201